Terminal Aerodrome Forecast
Issued by NWS Amarillo, TX

Home | Current Version | Previous Version | Text Only | Print | Product List | Glossary On
Versions: 1 2 3 4 5 6 7 8 9 10 11 12 13 14 15 16 17 18 19 20 21 22 23 24
000
FTUS44 KAMA 052354
TAFGUY
TAF
KGUY 052354Z 0600/0624 VRB06KT P6SM SCT300
     FM060100 01021G31KT P6SM SCT300
     FM061300 02011KT P6SM BKN300
     FM062000 10009KT P6SM BKN300=

USA.gov is the U.S. government's official web portal to all federal, state and local government web resources and services.